owner,sensor,date,latitude,longitude,vertical_datum,wind_speed,wind_to_direction,wind_speed_of_gust,qcFlag 
SCCF RECON,ioos:station:SCCF:53:1,2016-05-01T00:00:00Z,26.6493,-81.8810,2.11,3.5,89.1,-9999.0,'1111122,1111122,1111122' 
SCCF RECON,ioos:station:SCCF:53:1,2016-05-01T00:15:00Z,26.6493,-81.8810,2.11,3.5,76.4,-9999.0,'1111122,1111122,1111122' 
SCCF RECON,ioos:station:SCCF:53:1,2016-05-01T00:30:00Z,26.6493,-81.8810,2.11,2.6,101.5,-9999.0,'1111122,1111122,1111122' 
SCCF RECON,ioos:station:SCCF:53:1,2016-05-01T00:45:00Z,26.6493,-81.8810,2.11,3.1,95.7,-9999.0,'1111122,1111122,1111122' 
SCCF RECON,ioos:station:SCCF:53:1,2016-05-01T01:00:00Z,26.6493,-81.8810,2.11,4.4,94.1,-9999.0,'1111122,1111122,1111122' 
SCCF RECON,ioos:station:SCCF:53:1,2016-05-01T01:15:00Z,26.6493,-81.8810,2.11,2.5,82.7,-9999.0,'1111122,1111122,1111122' 
SCCF RECON,ioos:station:SCCF:53:1,2016-05-01T01:30:00Z,26.6493,-81.8810,2.11,3.8,98.5,-9999.0,'1111122,1111122,1111122' 
SCCF RECON,ioos:station:SCCF:53:1,2016-05-01T01:45:00Z,26.6493,-81.8810,2.11,4.0,99.0,-9999.0,'1111122,1111122,1111122' 
SCCF RECON,ioos:station:SCCF:53:1,2016-05-01T02:00:00Z,26.6493,-81.8810,2.11,3.8,96.0,-9999.0,'1111122,1111122,1111122' 
SCCF RECON,ioos:station:SCCF:53:1,2016-05-01T02:15:00Z,26.6493,-81.8810,2.11,3.8,64.5,-9999.0,'1111122,1111122,1111122' 
SCCF RECON,ioos:station:SCCF:53:1,2016-05-01T02:30:00Z,26.6493,-81.8810,2.11,5.7,90.5,-9999.0,'1111122,1111122,1111122' 
SCCF RECON,ioos:station:SCCF:53:1,2016-05-01T02:45:00Z,26.6493,-81.8810,2.11,5.0,77.1,-9999.0,'1111122,1111122,1111122' 
SCCF RECON,ioos:station:SCCF:53:1,2016-05-01T03:00:00Z,26.6493,-81.8810,2.11,3.7,76.0,-9999.0,'1111122,1111122,1111122' 
SCCF RECON,ioos:station:SCCF:53:1,2016-05-01T03:15:00Z,26.6493,-81.8810,2.11,4.1,80.8,-9999.0,'1111122,1111122,1111122' 
SCCF RECON,ioos:station:SCCF:53:1,2016-05-01T03:30:00Z,26.6493,-81.8810,2.11,2.8,121.9,-9999.0,'1111122,1111122,1111122' 
SCCF RECON,ioos:station:SCCF:53:1,2016-05-01T03:45:00Z,26.6493,-81.8810,2.11,3.3,94.2,-9999.0,'1111122,1111122,1111122' 
SCCF RECON,ioos:station:SCCF:53:1,2016-05-01T04:00:00Z,26.6493,-81.8810,2.11,3.9,94.7,-9999.0,'1111122,1111122,1111122' 
SCCF RECON,ioos:station:SCCF:53:1,2016-05-01T04:15:00Z,26.6493,-81.8810,2.11,3.1,97.1,-9999.0,'1111122,1111122,1111122' 
SCCF RECON,ioos:station:SCCF:53:1,2016-05-01T04:30:00Z,26.6493,-81.8810,2.11,2.8,96.7,-9999.0,'1111122,1111122,1111122' 
SCCF RECON,ioos:station:SCCF:53:1,2016-05-01T04:45:00Z,26.6493,-81.8810,2.11,1.6,99.4,-9999.0,'1111122,1111122,1111122' 
SCCF RECON,ioos:station:SCCF:53:1,2016-05-01T05:00:00Z,26.6493,-81.8810,2.11,2.5,99.7,-9999.0,'1111122,1111122,1111122' 
SCCF RECON,ioos:station:SCCF:53:1,2016-05-01T05:15:00Z,26.6493,-81.8810,2.11,1.9,96.7,-9999.0,'1111122,1111122,1111122' 
SCCF RECON,ioos:station:SCCF:53:1,2016-05-01T05:30:00Z,26.6493,-81.8810,2.11,2.3,83.8,-9999.0,'1111122,1111122,1111122' 
SCCF RECON,ioos:station:SCCF:53:1,2016-05-01T05:45:00Z,26.6493,-81.8810,2.11,2.7,97.1,-9999.0,'1111122,1111122,1111122' 
SCCF RECON,ioos:station:SCCF:53:1,2016-05-01T06:00:00Z,26.6493,-81.8810,2.11,2.4,95.5,-9999.0,'1111122,1111122,1111122' 
SCCF RECON,ioos:station:SCCF:53:1,2016-05-01T06:15:00Z,26.6493,-81.8810,2.11,2.1,90.1,-9999.0,'1111122,1111122,1111122' 
SCCF RECON,ioos:station:SCCF:53:1,2016-05-01T06:30:00Z,26.6493,-81.8810,2.11,3.1,69.7,-9999.0,'1111122,1111122,1111122' 
SCCF RECON,ioos:station:SCCF:53:1,2016-05-01T06:45:00Z,26.6493,-81.8810,2.11,2.9,73.2,-9999.0,'1111122,1111122,1111122' 
SCCF RECON,ioos:station:SCCF:53:1,2016-05-01T07:00:00Z,26.6493,-81.8810,2.11,2.9,105.1,-9999.0,'1111122,1111122,1111122' 
SCCF RECON,ioos:station:SCCF:53:1,2016-05-01T07:15:00Z,26.6493,-81.8810,2.11,3.7,80.0,-9999.0,'1111122,1111122,1111122' 
SCCF RECON,ioos:station:SCCF:53:1,2016-05-01T07:30:00Z,26.6493,-81.8810,2.11,3.2,88.6,-9999.0,'1111122,1111122,1111122' 
SCCF RECON,ioos:station:SCCF:53:1,2016-05-01T07:45:00Z,26.6493,-81.8810,2.11,3.2,90.5,-9999.0,'1111122,1111122,1111122' 
SCCF RECON,ioos:station:SCCF:53:1,2016-05-01T08:00:00Z,26.6493,-81.8810,2.11,3.4,87.5,-9999.0,'1111122,1111122,1111122' 
SCCF RECON,ioos:station:SCCF:53:1,2016-05-01T08:15:00Z,26.6493,-81.8810,2.11,2.8,69.0,-9999.0,'1111122,1111122,1111122' 
SCCF RECON,ioos:station:SCCF:53:1,2016-05-01T08:30:00Z,26.6493,-81.8810,2.11,2.9,70.9,-9999.0,'1111122,1111122,1111122' 
SCCF RECON,ioos:station:SCCF:53:1,2016-05-01T08:45:00Z,26.6493,-81.8810,2.11,3.1,92.7,-9999.0,'1111122,1111122,1111122' 
SCCF RECON,ioos:station:SCCF:53:1,2016-05-01T09:00:00Z,26.6493,-81.8810,2.11,3.1,82.5,-9999.0,'1111122,1111122,1111122' 
SCCF RECON,ioos:station:SCCF:53:1,2016-05-01T09:15:00Z,26.6493,-81.8810,2.11,3.6,92.2,-9999.0,'1111122,1111122,1111122' 
SCCF RECON,ioos:station:SCCF:53:1,2016-05-01T09:30:00Z,26.6493,-81.8810,2.11,2.2,88.1,-9999.0,'1111122,1111122,1111122' 
SCCF RECON,ioos:station:SCCF:53:1,2016-05-01T09:45:00Z,26.6493,-81.8810,2.11,3.1,80.6,-9999.0,'1111122,1111122,1111122' 
SCCF RECON,ioos:station:SCCF:53:1,2016-05-01T10:00:00Z,26.6493,-81.8810,2.11,2.9,79.2,-9999.0,'1111122,1111122,1111122' 
SCCF RECON,ioos:station:SCCF:53:1,2016-05-01T10:15:00Z,26.6493,-81.8810,2.11,3.7,76.8,-9999.0,'1111122,1111122,1111122' 
SCCF RECON,ioos:station:SCCF:53:1,2016-05-01T10:30:00Z,26.6493,-81.8810,2.11,3.4,80.3,-9999.0,'1111122,1111122,1111122' 
SCCF RECON,ioos:station:SCCF:53:1,2016-05-01T10:45:00Z,26.6493,-81.8810,2.11,2.5,76.4,-9999.0,'1111122,1111122,1111122' 
SCCF RECON,ioos:station:SCCF:53:1,2016-05-01T11:00:00Z,26.6493,-81.8810,2.11,2.7,89.9,-9999.0,'1111122,1111122,1111122' 
SCCF RECON,ioos:station:SCCF:53:1,2016-05-01T11:15:00Z,26.6493,-81.8810,2.11,2.3,88.8,-9999.0,'1111122,1111122,1111122' 
SCCF RECON,ioos:station:SCCF:53:1,2016-05-01T11:30:00Z,26.6493,-81.8810,2.11,3.5,94.6,-9999.0,'1111122,1111122,1111122' 
SCCF RECON,ioos:station:SCCF:53:1,2016-05-01T11:45:00Z,26.6493,-81.8810,2.11,3.0,81.9,-9999.0,'1111122,1111122,1111122' 
SCCF RECON,ioos:station:SCCF:53:1,2016-05-01T12:00:00Z,26.6493,-81.8810,2.11,3.8,89.9,-9999.0,'1111122,1111122,1111122' 
SCCF RECON,ioos:station:SCCF:53:1,2016-05-01T12:15:00Z,26.6493,-81.8810,2.11,3.1,92.1,-9999.0,'1111122,1111122,1111122' 
SCCF RECON,ioos:station:SCCF:53:1,2016-05-01T12:30:00Z,26.6493,-81.8810,2.11,3.6,117.8,-9999.0,'1111122,1111122,1111122' 
SCCF RECON,ioos:station:SCCF:53:1,2016-05-01T12:45:00Z,26.6493,-81.8810,2.11,6.0,127.4,-9999.0,'1111122,1111122,1111122' 
SCCF RECON,ioos:station:SCCF:53:1,2016-05-01T13:00:00Z,26.6493,-81.8810,2.11,2.6,62.9,-9999.0,'1111122,1111122,1111122' 
SCCF RECON,ioos:station:SCCF:53:1,2016-05-01T13:15:00Z,26.6493,-81.8810,2.11,2.2,70.9,-9999.0,'1111122,1111122,1111122' 
SCCF RECON,ioos:station:SCCF:53:1,2016-05-01T13:30:00Z,26.6493,-81.8810,2.11,4.2,90.3,-9999.0,'1111122,1111122,1111122' 
SCCF RECON,ioos:station:SCCF:53:1,2016-05-01T13:45:00Z,26.6493,-81.8810,2.11,5.3,86.5,-9999.0,'1111122,1111122,1111122' 
SCCF RECON,ioos:station:SCCF:53:1,2016-05-01T14:00:00Z,26.6493,-81.8810,2.11,4.4,125.8,-9999.0,'1111122,1111122,1111122' 
SCCF RECON,ioos:station:SCCF:53:1,2016-05-01T14:15:00Z,26.6493,-81.8810,2.11,4.6,128.9,-9999.0,'1111122,1111122,1111122' 
SCCF RECON,ioos:station:SCCF:53:1,2016-05-01T14:30:00Z,26.6493,-81.8810,2.11,3.1,129.4,-9999.0,'1111122,1111122,1111122' 
SCCF RECON,ioos:station:SCCF:53:1,2016-05-01T14:45:00Z,26.6493,-81.8810,2.11,5.0,130.0,-9999.0,'1111122,1111122,1111122' 
SCCF RECON,ioos:station:SCCF:53:1,2016-05-01T15:00:00Z,26.6493,-81.8810,2.11,3.6,100.7,-9999.0,'1111122,1111122,1111122' 
SCCF RECON,ioos:station:SCCF:53:1,2016-05-01T15:15:00Z,26.6493,-81.8810,2.11,4.2,140.4,-9999.0,'1111122,1111122,1111122' 
SCCF RECON,ioos:station:SCCF:53:1,2016-05-01T15:30:00Z,26.6493,-81.8810,2.11,1.8,121.6,-9999.0,'1111122,1111122,1111122' 
SCCF RECON,ioos:station:SCCF:53:1,2016-05-01T15:45:00Z,26.6493,-81.8810,2.11,2.4,95.7,-9999.0,'1111122,1111122,1111122' 
SCCF RECON,ioos:station:SCCF:53:1,2016-05-01T16:00:00Z,26.6493,-81.8810,2.11,2.3,173.7,-9999.0,'1111122,1111122,1111122' 
SCCF RECON,ioos:station:SCCF:53:1,2016-05-01T16:15:00Z,26.6493,-81.8810,2.11,2.4,135.1,-9999.0,'1111122,1111122,1111122' 
SCCF RECON,ioos:station:SCCF:53:1,2016-05-01T16:30:00Z,26.6493,-81.8810,2.11,4.5,96.0,-9999.0,'1111122,1111122,1111122' 
SCCF RECON,ioos:station:SCCF:53:1,2016-05-01T16:45:00Z,26.6493,-81.8810,2.11,2.8,171.3,-9999.0,'1111122,1111122,1111122' 
SCCF RECON,ioos:station:SCCF:53:1,2016-05-01T17:00:00Z,26.6493,-81.8810,2.11,3.3,147.5,-9999.0,'1111122,1111122,1111122' 
SCCF RECON,ioos:station:SCCF:53:1,2016-05-01T17:15:00Z,26.6493,-81.8810,2.11,2.0,68.8,-9999.0,'1111122,1111122,1111122' 
SCCF RECON,ioos:station:SCCF:53:1,2016-05-01T17:30:00Z,26.6493,-81.8810,2.11,1.4,202.6,-9999.0,'1111122,1111122,1111122' 
SCCF RECON,ioos:station:SCCF:53:1,2016-05-01T17:45:00Z,26.6493,-81.8810,2.11,1.0,130.3,-9999.0,'1111122,1111122,1111122' 
SCCF RECON,ioos:station:SCCF:53:1,2016-05-01T18:00:00Z,26.6493,-81.8810,2.11,3.0,121.7,-9999.0,'1111122,1111122,1111122' 
SCCF RECON,ioos:station:SCCF:53:1,2016-05-01T18:15:00Z,26.6493,-81.8810,2.11,3.8,73.5,-9999.0,'1111122,1111122,1111122' 
SCCF RECON,ioos:station:SCCF:53:1,2016-05-01T18:30:00Z,26.6493,-81.8810,2.11,3.1,148.1,-9999.0,'1111122,1111122,1111122' 
SCCF RECON,ioos:station:SCCF:53:1,2016-05-01T18:45:00Z,26.6493,-81.8810,2.11,2.1,140.6,-9999.0,'1111122,1111122,1111122' 
SCCF RECON,ioos:station:SCCF:53:1,2016-05-01T19:00:00Z,26.6493,-81.8810,2.11,2.1,102.0,-9999.0,'1111122,1111122,1111122' 
SCCF RECON,ioos:station:SCCF:53:1,2016-05-01T19:15:00Z,26.6493,-81.8810,2.11,2.8,71.2,-9999.0,'1111122,1111122,1111122' 
SCCF RECON,ioos:station:SCCF:53:1,2016-05-01T19:30:00Z,26.6493,-81.8810,2.11,4.2,112.9,-9999.0,'1111122,1111122,1111122' 
SCCF RECON,ioos:station:SCCF:53:1,2016-05-01T19:45:00Z,26.6493,-81.8810,2.11,3.7,224.3,-9999.0,'1111122,1111122,1111122' 
SCCF RECON,ioos:station:SCCF:53:1,2016-05-01T20:00:00Z,26.6493,-81.8810,2.11,3.4,211.9,-9999.0,'1111122,1111122,1111122' 
SCCF RECON,ioos:station:SCCF:53:1,2016-05-01T20:15:00Z,26.6493,-81.8810,2.11,4.3,216.1,-9999.0,'1111122,1111122,1111122' 
SCCF RECON,ioos:station:SCCF:53:1,2016-05-01T20:30:00Z,26.6493,-81.8810,2.11,7.3,202.5,-9999.0,'1111122,1111122,1111122' 
SCCF RECON,ioos:station:SCCF:53:1,2016-05-01T20:45:00Z,26.6493,-81.8810,2.11,7.4,208.8,-9999.0,'1111122,1111122,1111122' 
SCCF RECON,ioos:station:SCCF:53:1,2016-05-01T21:00:00Z,26.6493,-81.8810,2.11,6.3,216.6,-9999.0,'1111122,1111122,1111122' 
SCCF RECON,ioos:station:SCCF:53:1,2016-05-01T21:15:00Z,26.6493,-81.8810,2.11,5.4,224.8,-9999.0,'1111122,1111122,1111122' 
SCCF RECON,ioos:station:SCCF:53:1,2016-05-01T21:30:00Z,26.6493,-81.8810,2.11,4.6,213.8,-9999.0,'1111122,1111122,1111122' 
SCCF RECON,ioos:station:SCCF:53:1,2016-05-01T21:45:00Z,26.6493,-81.8810,2.11,5.6,216.4,-9999.0,'1111122,1111122,1111122' 
SCCF RECON,ioos:station:SCCF:53:1,2016-05-01T22:00:00Z,26.6493,-81.8810,2.11,5.4,207.1,-9999.0,'1111122,1111122,1111122' 
SCCF RECON,ioos:station:SCCF:53:1,2016-05-01T22:15:00Z,26.6493,-81.8810,2.11,5.6,213.1,-9999.0,'1111122,1111122,1111122' 
SCCF RECON,ioos:station:SCCF:53:1,2016-05-01T22:30:00Z,26.6493,-81.8810,2.11,6.7,206.7,-9999.0,'1111122,1111122,1111122' 
SCCF RECON,ioos:station:SCCF:53:1,2016-05-01T22:45:00Z,26.6493,-81.8810,2.11,5.0,203.4,-9999.0,'1111122,1111122,1111122' 
SCCF RECON,ioos:station:SCCF:53:1,2016-05-01T23:00:00Z,26.6493,-81.8810,2.11,5.4,210.6,-9999.0,'1111122,1111122,1111122' 
SCCF RECON,ioos:station:SCCF:53:1,2016-05-01T23:15:00Z,26.6493,-81.8810,2.11,4.4,202.5,-9999.0,'1111122,1111122,1111122' 
SCCF RECON,ioos:station:SCCF:53:1,2016-05-01T23:30:00Z,26.6493,-81.8810,2.11,5.3,202.7,-9999.0,'1111122,1111122,1111122' 
SCCF RECON,ioos:station:SCCF:53:1,2016-05-01T23:45:00Z,26.6493,-81.8810,2.11,4.4,203.4,-9999.0,'1111122,1111122,1111122' 
SCCF RECON,ioos:station:SCCF:53:1,2016-05-02T00:00:00Z,26.6493,-81.8810,2.11,3.7,196.0,-9999.0,'1111122,1111122,1111122' 
SCCF RECON,ioos:station:SCCF:53:1,2016-05-02T00:15:00Z,26.6493,-81.8810,2.11,2.7,187.8,-9999.0,'1111122,1111122,1111122' 
SCCF RECON,ioos:station:SCCF:53:1,2016-05-02T00:30:00Z,26.6493,-81.8810,2.11,2.5,186.0,-9999.0,'1111122,1111122,1111122' 
SCCF RECON,ioos:station:SCCF:53:1,2016-05-02T00:45:00Z,26.6493,-81.8810,2.11,2.8,192.2,-9999.0,'1111122,1111122,1111122' 
SCCF RECON,ioos:station:SCCF:53:1,2016-05-02T01:00:00Z,26.6493,-81.8810,2.11,2.8,194.9,-9999.0,'1111122,1111122,1111122' 
SCCF RECON,ioos:station:SCCF:53:1,2016-05-02T01:15:00Z,26.6493,-81.8810,2.11,1.8,182.7,-9999.0,'1111122,1111122,1111122' 
SCCF RECON,ioos:station:SCCF:53:1,2016-05-02T01:30:00Z,26.6493,-81.8810,2.11,1.2,162.4,-9999.0,'1111122,1111122,1111122' 
SCCF RECON,ioos:station:SCCF:53:1,2016-05-02T01:45:00Z,26.6493,-81.8810,2.11,1.1,141.4,-9999.0,'1111122,1111122,1111122' 
SCCF RECON,ioos:station:SCCF:53:1,2016-05-02T02:00:00Z,26.6493,-81.8810,2.11,0.8,146.2,-9999.0,'1111122,1111122,1111122' 
SCCF RECON,ioos:station:SCCF:53:1,2016-05-02T02:15:00Z,26.6493,-81.8810,2.11,1.1,146.6,-9999.0,'1111122,1111122,1111122' 
SCCF RECON,ioos:station:SCCF:53:1,2016-05-02T02:30:00Z,26.6493,-81.8810,2.11,1.1,105.9,-9999.0,'1111122,1111122,1111122' 
SCCF RECON,ioos:station:SCCF:53:1,2016-05-02T02:45:00Z,26.6493,-81.8810,2.11,0.8,52.5,-9999.0,'1111122,1111122,1111122' 
SCCF RECON,ioos:station:SCCF:53:1,2016-05-02T03:00:00Z,26.6493,-81.8810,2.11,2.1,92.4,-9999.0,'1111122,1111122,1111122' 
SCCF RECON,ioos:station:SCCF:53:1,2016-05-02T03:15:00Z,26.6493,-81.8810,2.11,3.8,105.4,-9999.0,'1111122,1111122,1111122' 
SCCF RECON,ioos:station:SCCF:53:1,2016-05-02T03:30:00Z,26.6493,-81.8810,2.11,3.8,79.0,-9999.0,'1111122,1111122,1111122' 
SCCF RECON,ioos:station:SCCF:53:1,2016-05-02T03:45:00Z,26.6493,-81.8810,2.11,1.6,86.2,-9999.0,'1111122,1111122,1111122' 
SCCF RECON,ioos:station:SCCF:53:1,2016-05-02T04:00:00Z,26.6493,-81.8810,2.11,2.1,113.4,-9999.0,'1111122,1111122,1111122' 
SCCF RECON,ioos:station:SCCF:53:1,2016-05-02T04:15:00Z,26.6493,-81.8810,2.11,2.4,98.4,-9999.0,'1111122,1111122,1111122' 
SCCF RECON,ioos:station:SCCF:53:1,2016-05-02T04:30:00Z,26.6493,-81.8810,2.11,3.6,84.1,-9999.0,'1111122,1111122,1111122' 
SCCF RECON,ioos:station:SCCF:53:1,2016-05-02T04:45:00Z,26.6493,-81.8810,2.11,2.3,106.5,-9999.0,'1111122,1111122,1111122' 
SCCF RECON,ioos:station:SCCF:53:1,2016-05-02T05:00:00Z,26.6493,-81.8810,2.11,2.2,99.3,-9999.0,'1111122,1111122,1111122' 
SCCF RECON,ioos:station:SCCF:53:1,2016-05-02T05:15:00Z,26.6493,-81.8810,2.11,2.2,102.9,-9999.0,'1111122,1111122,1111122' 
SCCF RECON,ioos:station:SCCF:53:1,2016-05-02T05:30:00Z,26.6493,-81.8810,2.11,2.1,100.0,-9999.0,'1111122,1111122,1111122' 
SCCF RECON,ioos:station:SCCF:53:1,2016-05-02T05:45:00Z,26.6493,-81.8810,2.11,3.1,86.4,-9999.0,'1111122,1111122,1111122' 
SCCF RECON,ioos:station:SCCF:53:1,2016-05-02T06:00:00Z,26.6493,-81.8810,2.11,2.5,83.8,-9999.0,'1111122,1111122,1111122' 
SCCF RECON,ioos:station:SCCF:53:1,2016-05-02T06:15:00Z,26.6493,-81.8810,2.11,2.7,95.6,-9999.0,'1111122,1111122,1111122' 
SCCF RECON,ioos:station:SCCF:53:1,2016-05-02T06:30:00Z,26.6493,-81.8810,2.11,2.1,88.4,-9999.0,'1111122,1111122,1111122' 
SCCF RECON,ioos:station:SCCF:53:1,2016-05-02T06:45:00Z,26.6493,-81.8810,2.11,3.2,80.2,-9999.0,'1111122,1111122,1111122' 
SCCF RECON,ioos:station:SCCF:53:1,2016-05-02T07:00:00Z,26.6493,-81.8810,2.11,2.5,90.7,-9999.0,'1111122,1111122,1111122' 
SCCF RECON,ioos:station:SCCF:53:1,2016-05-02T07:15:00Z,26.6493,-81.8810,2.11,2.4,88.0,-9999.0,'1111122,1111122,1111122' 
SCCF RECON,ioos:station:SCCF:53:1,2016-05-02T07:30:00Z,26.6493,-81.8810,2.11,2.1,118.8,-9999.0,'1111122,1111122,1111122' 
SCCF RECON,ioos:station:SCCF:53:1,2016-05-02T07:45:00Z,26.6493,-81.8810,2.11,2.4,124.2,-9999.0,'1111122,1111122,1111122' 
SCCF RECON,ioos:station:SCCF:53:1,2016-05-02T08:00:00Z,26.6493,-81.8810,2.11,2.6,125.0,-9999.0,'1111122,1111122,1111122' 
SCCF RECON,ioos:station:SCCF:53:1,2016-05-02T08:15:00Z,26.6493,-81.8810,2.11,2.3,77.2,-9999.0,'1111122,1111122,1111122' 
SCCF RECON,ioos:station:SCCF:53:1,2016-05-02T08:30:00Z,26.6493,-81.8810,2.11,2.1,96.9,-9999.0,'1111122,1111122,1111122' 
SCCF RECON,ioos:station:SCCF:53:1,2016-05-02T08:45:00Z,26.6493,-81.8810,2.11,2.0,108.0,-9999.0,'1111122,1111122,1111122' 
SCCF RECON,ioos:station:SCCF:53:1,2016-05-02T09:00:00Z,26.6493,-81.8810,2.11,3.0,114.6,-9999.0,'1111122,1111122,1111122' 
SCCF RECON,ioos:station:SCCF:53:1,2016-05-02T09:15:00Z,26.6493,-81.8810,2.11,2.3,90.0,-9999.0,'1111122,1111122,1111122' 
SCCF RECON,ioos:station:SCCF:53:1,2016-05-02T09:30:00Z,26.6493,-81.8810,2.11,1.9,116.5,-9999.0,'1111122,1111122,1111122' 
SCCF RECON,ioos:station:SCCF:53:1,2016-05-02T09:45:00Z,26.6493,-81.8810,2.11,2.2,105.9,-9999.0,'1111122,1111122,1111122' 
SCCF RECON,ioos:station:SCCF:53:1,2016-05-02T10:00:00Z,26.6493,-81.8810,2.11,2.3,97.7,-9999.0,'1111122,1111122,1111122' 
SCCF RECON,ioos:station:SCCF:53:1,2016-05-02T10:15:00Z,26.6493,-81.8810,2.11,1.6,76.4,-9999.0,'1111122,1111122,1111122' 
SCCF RECON,ioos:station:SCCF:53:1,2016-05-02T10:30:00Z,26.6493,-81.8810,2.11,2.0,112.7,-9999.0,'1111122,1111122,1111122' 
SCCF RECON,ioos:station:SCCF:53:1,2016-05-02T10:45:00Z,26.6493,-81.8810,2.11,2.0,112.2,-9999.0,'1111122,1111122,1111122' 
SCCF RECON,ioos:station:SCCF:53:1,2016-05-02T11:00:00Z,26.6493,-81.8810,2.11,2.0,113.0,-9999.0,'1111122,1111122,1111122' 
SCCF RECON,ioos:station:SCCF:53:1,2016-05-02T11:15:00Z,26.6493,-81.8810,2.11,2.8,76.9,-9999.0,'1111122,1111122,1111122' 
SCCF RECON,ioos:station:SCCF:53:1,2016-05-02T11:30:00Z,26.6493,-81.8810,2.11,3.0,107.4,-9999.0,'1111122,1111122,1111122' 
SCCF RECON,ioos:station:SCCF:53:1,2016-05-02T11:45:00Z,26.6493,-81.8810,2.11,2.5,82.3,-9999.0,'1111122,1111122,1111122' 
SCCF RECON,ioos:station:SCCF:53:1,2016-05-02T12:00:00Z,26.6493,-81.8810,2.11,2.7,87.1,-9999.0,'1111122,1111122,1111122' 
SCCF RECON,ioos:station:SCCF:53:1,2016-05-02T12:15:00Z,26.6493,-81.8810,2.11,3.3,82.5,-9999.0,'1111122,1111122,1111122' 
SCCF RECON,ioos:station:SCCF:53:1,2016-05-02T12:30:00Z,26.6493,-81.8810,2.11,3.3,83.2,-9999.0,'1111122,1111122,1111122' 
SCCF RECON,ioos:station:SCCF:53:1,2016-05-02T12:45:00Z,26.6493,-81.8810,2.11,2.8,140.6,-9999.0,'1111122,1111122,1111122' 
SCCF RECON,ioos:station:SCCF:53:1,2016-05-02T13:00:00Z,26.6493,-81.8810,2.11,1.4,141.8,-9999.0,'1111122,1111122,1111122' 
SCCF RECON,ioos:station:SCCF:53:1,2016-05-02T13:15:00Z,26.6493,-81.8810,2.11,3.2,133.7,-9999.0,'1111122,1111122,1111122' 
SCCF RECON,ioos:station:SCCF:53:1,2016-05-02T13:30:00Z,26.6493,-81.8810,2.11,3.7,143.4,-9999.0,'1111122,1111122,1111122' 
SCCF RECON,ioos:station:SCCF:53:1,2016-05-02T13:45:00Z,26.6493,-81.8810,2.11,4.4,136.5,-9999.0,'1111122,1111122,1111122' 
SCCF RECON,ioos:station:SCCF:53:1,2016-05-02T14:00:00Z,26.6493,-81.8810,2.11,4.7,129.9,-9999.0,'1111122,1111122,1111122' 
SCCF RECON,ioos:station:SCCF:53:1,2016-05-02T14:15:00Z,26.6493,-81.8810,2.11,4.3,158.1,-9999.0,'1111122,1111122,1111122' 
SCCF RECON,ioos:station:SCCF:53:1,2016-05-02T14:30:00Z,26.6493,-81.8810,2.11,3.5,133.4,-9999.0,'1111122,1111122,1111122' 
SCCF RECON,ioos:station:SCCF:53:1,2016-05-02T14:45:00Z,26.6493,-81.8810,2.11,4.8,145.1,-9999.0,'1111122,1111122,1111122' 
SCCF RECON,ioos:station:SCCF:53:1,2016-05-02T15:00:00Z,26.6493,-81.8810,2.11,4.5,123.8,-9999.0,'1111122,1111122,1111122' 
SCCF RECON,ioos:station:SCCF:53:1,2016-05-02T15:15:00Z,26.6493,-81.8810,2.11,3.5,154.8,-9999.0,'1111122,1111122,1111122' 
SCCF RECON,ioos:station:SCCF:53:1,2016-05-02T15:30:00Z,26.6493,-81.8810,2.11,4.7,133.7,-9999.0,'1111122,1111122,1111122' 
SCCF RECON,ioos:station:SCCF:53:1,2016-05-02T15:45:00Z,26.6493,-81.8810,2.11,4.1,124.0,-9999.0,'1111122,1111122,1111122' 
SCCF RECON,ioos:station:SCCF:53:1,2016-05-02T16:00:00Z,26.6493,-81.8810,2.11,4.4,176.1,-9999.0,'1111122,1111122,1111122' 
SCCF RECON,ioos:station:SCCF:53:1,2016-05-02T16:15:00Z,26.6493,-81.8810,2.11,0.4,152.3,-9999.0,'1111122,1111122,1111122' 
SCCF RECON,ioos:station:SCCF:53:1,2016-05-02T16:30:00Z,26.6493,-81.8810,2.11,5.0,202.3,-9999.0,'1111122,1111122,1111122' 
SCCF RECON,ioos:station:SCCF:53:1,2016-05-02T16:45:00Z,26.6493,-81.8810,2.11,6.6,213.2,-9999.0,'1111122,1111122,1111122' 
SCCF RECON,ioos:station:SCCF:53:1,2016-05-02T17:00:00Z,26.6493,-81.8810,2.11,7.1,225.5,-9999.0,'1111122,1111122,1111122' 
SCCF RECON,ioos:station:SCCF:53:1,2016-05-02T17:15:00Z,26.6493,-81.8810,2.11,5.0,226.6,-9999.0,'1111122,1111122,1111122' 
SCCF RECON,ioos:station:SCCF:53:1,2016-05-02T17:30:00Z,26.6493,-81.8810,2.11,7.0,215.4,-9999.0,'1111122,1111122,1111122' 
SCCF RECON,ioos:station:SCCF:53:1,2016-05-02T17:45:00Z,26.6493,-81.8810,2.11,6.0,230.1,-9999.0,'1111122,1111122,1111122' 
SCCF RECON,ioos:station:SCCF:53:1,2016-05-02T18:00:00Z,26.6493,-81.8810,2.11,5.2,216.2,-9999.0,'1111122,1111122,1111122' 
SCCF RECON,ioos:station:SCCF:53:1,2016-05-02T18:15:00Z,26.6493,-81.8810,2.11,6.9,225.2,-9999.0,'1111122,1111122,1111122' 
SCCF RECON,ioos:station:SCCF:53:1,2016-05-02T18:30:00Z,26.6493,-81.8810,2.11,6.9,221.4,-9999.0,'1111122,1111122,1111122' 
SCCF RECON,ioos:station:SCCF:53:1,2016-05-02T18:45:00Z,26.6493,-81.8810,2.11,6.6,218.7,-9999.0,'1111122,1111122,1111122' 
SCCF RECON,ioos:station:SCCF:53:1,2016-05-02T19:00:00Z,26.6493,-81.8810,2.11,7.9,224.2,-9999.0,'1111122,1111122,1111122' 
SCCF RECON,ioos:station:SCCF:53:1,2016-05-02T19:15:00Z,26.6493,-81.8810,2.11,6.3,217.0,-9999.0,'1111122,1111122,1111122' 
SCCF RECON,ioos:station:SCCF:53:1,2016-05-02T19:30:00Z,26.6493,-81.8810,2.11,7.0,219.8,-9999.0,'1111122,1111122,1111122' 
SCCF RECON,ioos:station:SCCF:53:1,2016-05-02T19:45:00Z,26.6493,-81.8810,2.11,7.4,225.7,-9999.0,'1111122,1111122,1111122' 
SCCF RECON,ioos:station:SCCF:53:1,2016-05-02T20:00:00Z,26.6493,-81.8810,2.11,7.9,219.7,-9999.0,'1111122,1111122,1111122' 
SCCF RECON,ioos:station:SCCF:53:1,2016-05-02T20:15:00Z,26.6493,-81.8810,2.11,7.1,214.8,-9999.0,'1111122,1111122,1111122' 
SCCF RECON,ioos:station:SCCF:53:1,2016-05-02T20:30:00Z,26.6493,-81.8810,2.11,7.1,223.5,-9999.0,'1111122,1111122,1111122' 
SCCF RECON,ioos:station:SCCF:53:1,2016-05-02T20:45:00Z,26.6493,-81.8810,2.11,6.5,209.5,-9999.0,'1111122,1111122,1111122' 
SCCF RECON,ioos:station:SCCF:53:1,2016-05-02T21:00:00Z,26.6493,-81.8810,2.11,6.6,212.2,-9999.0,'1111122,1111122,1111122' 
SCCF RECON,ioos:station:SCCF:53:1,2016-05-02T21:15:00Z,26.6493,-81.8810,2.11,6.5,216.0,-9999.0,'1111122,1111122,1111122' 
SCCF RECON,ioos:station:SCCF:53:1,2016-05-02T21:30:00Z,26.6493,-81.8810,2.11,6.9,220.9,-9999.0,'1111122,1111122,1111122' 
SCCF RECON,ioos:station:SCCF:53:1,2016-05-02T21:45:00Z,26.6493,-81.8810,2.11,5.8,217.1,-9999.0,'1111122,1111122,1111122' 
SCCF RECON,ioos:station:SCCF:53:1,2016-05-02T22:00:00Z,26.6493,-81.8810,2.11,5.9,215.8,-9999.0,'1111122,1111122,1111122' 
SCCF RECON,ioos:station:SCCF:53:1,2016-05-02T22:15:00Z,26.6493,-81.8810,2.11,5.1,229.0,-9999.0,'1111122,1111122,1111122' 
SCCF RECON,ioos:station:SCCF:53:1,2016-05-02T22:30:00Z,26.6493,-81.8810,2.11,7.3,219.1,-9999.0,'1111122,1111122,1111122' 
SCCF RECON,ioos:station:SCCF:53:1,2016-05-02T22:45:00Z,26.6493,-81.8810,2.11,6.6,221.2,-9999.0,'1111122,1111122,1111122' 
SCCF RECON,ioos:station:SCCF:53:1,2016-05-02T23:00:00Z,26.6493,-81.8810,2.11,6.5,201.8,-9999.0,'1111122,1111122,1111122' 
SCCF RECON,ioos:station:SCCF:53:1,2016-05-02T23:15:00Z,26.6493,-81.8810,2.11,6.4,213.0,-9999.0,'1111122,1111122,1111122' 
SCCF RECON,ioos:station:SCCF:53:1,2016-05-02T23:30:00Z,26.6493,-81.8810,2.11,6.4,212.1,-9999.0,'1111122,1111122,1111122' 
SCCF RECON,ioos:station:SCCF:53:1,2016-05-02T23:45:00Z,26.6493,-81.8810,2.11,6.1,218.5,-9999.0,'1111122,1111122,1111122' 
SCCF RECON,ioos:station:SCCF:53:1,2016-05-03T00:00:00Z,26.6493,-81.8810,2.11,5.0,224.2,-9999.0,'1111122,1111122,1111122' 
SCCF RECON,ioos:station:SCCF:53:1,2016-05-03T00:15:00Z,26.6493,-81.8810,2.11,5.2,213.7,-9999.0,'1111122,1111122,1111122' 
SCCF RECON,ioos:station:SCCF:53:1,2016-05-03T00:30:00Z,26.6493,-81.8810,2.11,4.7,229.3,-9999.0,'1111122,1111122,1111122' 
SCCF RECON,ioos:station:SCCF:53:1,2016-05-03T00:45:00Z,26.6493,-81.8810,2.11,3.7,233.4,-9999.0,'1111122,1111122,1111122' 